Tracking 19280 objects as of 14-Nov-2018
HD Live streaming from Space Station
objects crossing your sky now

COSMOS 2222

Track COSMOS 2222 now!
COSMOS 2222 is classified as:


NORAD ID: 22238
Int'l Code: 1992-081A
Perigee: 851.8 km
Apogee: 39,472.8 km
Inclination: 63.3 °
Period: 716.9 minutes
Semi major axis: 26533 km
RCS: 13.6381 m2 (large)
Launch date: November 25, 1992
Source: Commonwealth of Independent States (former USSR) (CIS)
Launch site: PLESETSK MISSILE AND SPACE COMPLEX (PKMTR)
aabbcc
Your satellite tracking list
Your tracking list is empty




NASA's NSSDC Master Catalog

Two Line Element Set (TLE):
1 22238U 92081A   18317.52630738 -.00000711 +00000-0 +23643-1 0  9990
2 22238 063.2627 121.7385 7277843 197.9611 108.0740 02.00870863190255
Source of the keplerian elements: AFSPC